{"data":{"norad_id":62909,"epoch":"2026-05-24T16:55:19.299072Z","epoch_age_seconds":97146,"freshness":"FRESH","line1":"1 62909U 25027C   26144.70508448  .00195535  00000+0  14885-2 0  9990","line2":"2 62909  43.0035 249.8016 0003133 280.8860  79.1655 15.70890513 75100","mean_motion":15.70890513,"eccentricity":0.0003133,"inclination_deg":43.0035,"raan_deg":249.8016,"arg_perigee_deg":280.886,"mean_anomaly_deg":79.1655,"bstar":0.0014885,"rev_number":7510,"period_min":91.667750749221,"perigee_km":354.24077483643,"apogee_km":358.46060482287,"semimajor_km":6734.4876898297,"source":"CELESTRAK","updated_at":"2026-05-25T13:38:19.817771Z"}}